Gainesville, GA

5:37 PM EDT on May 25, 2017 (GMT -0400)
Gilmer Memorial

Weather History for KGVL - February, 2012

Change the Weather History Date:

Sunday, February 12, 2012

  Actual Average Record
Temperature  
Mean Temperature 28 °F 45 °F  
Max Temperature 39 °F 54 °F 75 °F (1938)
Min Temperature 18 °F 36 °F 9 °F (1981)
Degree Days  
Heating Degree Days 36 20  
Month to date heating degree days 254  
Since 1 July heating degree days 2172  
Moisture  
Dew Point 8 °F    
Average Humidity 44    
Maximum Humidity 60    
Minimum Humidity 27    
Precipitation  
Precipitation 0.00 in 0.17 in 1.30 in (1948)
Month to date precipitation 1.90  
Year to date precipitation 6.93  
Snow  
Snow 0.00 in - - ()
Month to date snowfall  
Since 1 July snowfall  
Snow Depth -    
Sea Level Pressure  
Sea Level Pressure 30.32 in    
Wind  
Wind Speed 11 mph (WNW)    
Max Wind Speed 17 mph    
Max Gust Speed 28 mph    
Visibility 10 miles    
Events      
T = Trace of Precipitation, MM = Missing Value Source: NWS Daily Summary

Daily Weather History Graph

Daily Weather History Graph

Search for Another Location

Airport or City:

Trip Planner

Search our weather history database for the weather conditions in past years. The results will help you decide how hot, cold, wet, or windy it might be!

Date:

Astronomy

Feb. 12, 2012 Rise Set
Actual Time 7:23 AM EST 6:15 PM EST
Civil Twilight 6:58 AM EST 6:41 PM EST
Nautical Twilight 6:28 AM EST 7:11 PM EST
Astronomical Twilight 5:59 AM EST 7:40 PM EST
Moon 11:53 PM EST (2/12) 9:59 AM EST (2/12)
Length of Visible Light 11h 43m
Length of Day
10h 51m
Waning Gibbous, 72% of the Moon is Illuminated
Feb 12
Waning Gibbous
Feb 14
Last Quarter
Feb 21
New
Feb 29
First Quarter
Mar 8
Full

Hourly Weather History & Observations

Time (EST) Temp. Windchill Dew Point Humidity Pressure Visibility Wind Dir Wind Speed Gust Speed Precip Events Conditions
12:53 AM 21.9 °F 7.8 °F 5.0 °F 48% 30.29 in 10.0 mi WNW 17.3 mph 27.6 mph N/A   Clear
1:53 AM 21.0 °F 7.1 °F 5.0 °F 50% 30.30 in 10.0 mi WNW 16.1 mph 23.0 mph N/A   Clear
2:53 AM 19.9 °F 7.3 °F 6.1 °F 55% 30.30 in 10.0 mi NW 12.7 mph - N/A   Clear
3:53 AM 19.0 °F 8.2 °F 6.1 °F 57% 30.30 in 10.0 mi NNW 9.2 mph 18.4 mph N/A   Clear
4:53 AM 19.0 °F 6.1 °F 7.0 °F 59% 30.29 in 10.0 mi NW 12.7 mph - N/A   Clear
5:53 AM 19.0 °F 9.0 °F 6.1 °F 57% 30.28 in 10.0 mi NW 8.1 mph 16.1 mph N/A   Clear
6:53 AM 18.0 °F - 6.1 °F 60% 30.33 in 10.0 mi Calm Calm - N/A   Clear
7:53 AM 19.0 °F 11.1 °F 7.0 °F 59% 30.35 in 10.0 mi NW 5.8 mph - N/A   Clear
8:53 AM 21.9 °F 9.8 °F 3.9 °F 46% 30.37 in 10.0 mi NW 12.7 mph - N/A   Clear
9:53 AM 25.0 °F 14.2 °F 3.9 °F 41% 30.38 in 10.0 mi West 11.5 mph - N/A   Clear
10:53 AM 28.0 °F 20.8 °F 3.0 °F 34% 30.39 in 10.0 mi West 6.9 mph - N/A   Clear
11:53 AM 32.0 °F 28.7 °F 5.0 °F 32% 30.38 in 10.0 mi Variable 3.5 mph - N/A   Clear
12:53 PM 36.0 °F 29.6 °F 5.0 °F 27% 30.35 in 10.0 mi West 8.1 mph - N/A   Clear
1:53 PM 37.0 °F 28.5 °F 6.1 °F 28% 30.32 in 10.0 mi WSW 13.8 mph 18.4 mph N/A   Clear
2:53 PM 39.9 °F 32.9 °F 9.0 °F 28% 30.31 in 10.0 mi West 11.5 mph 20.7 mph N/A   Clear
3:53 PM 39.9 °F 34.5 °F 9.0 °F 28% 30.30 in 10.0 mi West 8.1 mph 20.7 mph N/A   Clear
4:53 PM 37.9 °F 29.2 °F 10.0 °F 32% 30.31 in 10.0 mi West 15.0 mph 21.9 mph N/A   Clear
5:53 PM 36.0 °F 27.1 °F 9.0 °F 33% 30.32 in 10.0 mi West 13.8 mph - N/A   Clear
6:53 PM 34.0 °F 25.0 °F 10.9 °F 38% 30.33 in 10.0 mi West 12.7 mph - N/A   Clear
7:53 PM 32.0 °F 23.6 °F 10.9 °F 42% 30.33 in 10.0 mi WNW 10.4 mph - N/A   Clear
8:53 PM 30.9 °F 25.2 °F 12.0 °F 46% 30.32 in 10.0 mi WSW 5.8 mph - N/A   Clear
9:53 PM 30.0 °F 23.2 °F 12.9 °F 49% 30.32 in 10.0 mi WNW 6.9 mph - N/A   Clear
10:53 PM 30.0 °F 24.1 °F 12.9 °F 49% 30.31 in 10.0 mi NW 5.8 mph - N/A   Clear
11:53 PM 28.0 °F 22.8 °F 12.9 °F 53% 30.29 in 10.0 mi WNW 4.6 mph - N/A   Clear